Theta_e
304 299 296 299 300 299 297 295 294 297 300 297 297 298 300 304 304 304 305 306 307 308 311 313 314 313 313 317 323 325 325 325 325 325 323 324 324 326 324 325 327 330 330 329
299 295 300 301 300 298 297 294 294 298 300 296 297 297 301 302 303 304 305 306 307 308 309 312 313 313 312 312 317 320 322 322 322 322 321 321 320 321 322 320 317 322 324 326
295 297 300 298 296 295 295 294 294 294 298 298 296 295 298 302 304 304 305 307 307 307 308 310 311 312 312 311 313 314 317 318 318 319 319 318 317 318 316 315 312 309 312 319
297 300 297 296 294 296 291 298 296 295 293 289 296 287 296 299 300 303 305 306 307 308 310 309 309 311 311 312 313 313 314 315 316 318 317 316 313 311 312 313 312 305 307 309
295 295 295 294 295 297 294 297 296 295 293 292 293 289 294 299 297 300 304 307 308 309 308 308 308 309 310 312 312 313 312 313 315 317 316 316 312 313 315 316 314 307 302 303
297 298 298 297 296 298 297 296 295 294 293 286 291 291 292 296 299 301 304 304 305 306 307 306 304 304 306 308 309 311 310 310 313 314 315 314 312 313 314 313 309 305 301 299
294 294 297 298 294 296 296 293 286 286 285 285 293 291 294 299 301 302 303 307 305 306 307 307 306 304 304 305 306 307 308 308 311 313 313 312 313 313 313 312 309 304 299 294
289 287 294 297 296 293 293 293 288 284 284 287 290 286 293 302 304 304 305 306 306 305 306 306 306 305 304 304 305 306 307 307 309 310 311 311 312 312 313 312 311 308 304 301
290 290 297 297 298 298 293 289 295 290 288 285 289 294 299 302 302 303 304 304 305 305 306 306 305 304 304 304 305 306 306 307 308 309 310 309 310 310 311 311 312 311 309 305
295 289 294 294 297 297 295 297 287 289 284 282 287 291 292 298 300 302 303 304 305 306 306 304 303 303 303 304 305 306 306 306 307 308 308 308 309 309 310 310 308 306 304 299
297 294 290 293 292 292 291 291 292 293 291 287 285 290 301 301 302 302 305 305 305 306 304 303 303 302 303 303 304 305 305 305 306 307 306 307 307 308 308 306 304 301 298 293
297 294 289 291 296 297 296 293 293 288 287 290 289 289 301 300 300 300 303 303 305 305 304 304 303 302 302 302 303 304 305 305 305 306 305 305 305 304 303 302 300 296 292 289
295 289 286 287 292 293 290 294 294 295 291 288 287 289 299 300 301 301 300 303 302 302 303 302 302 302 302 302 303 303 304 304 305 304 303 303 302 302 300 299 297 292 289 287
297 286 287 287 287 292 289 292 294 292 287 288 289 292 298 301 301 302 302 302 303 302 303 303 303 302 302 302 302 302 302 303 304 302 302 301 301 300 299 297 293 290 288 286
294 285 287 289 289 288 287 287 289 289 290 287 291 292 297 300 302 303 304 302 302 302 302 303 303 304 303 302 302 301 301 302 302 301 300 300 300 299 297 293 290 288 286 285
292 286 287 285 289 288 285 287 289 289 290 290 291 290 298 300 302 302 303 303 303 304 303 303 302 303 302 302 301 300 299 299 299 299 298 298 297 293 292 290 287 286 284 284
289 287 285 281 288 288 283 287 288 290 293 292 288 294 299 298 299 301 302 303 303 304 304 305 304 304 303 303 301 299 298 297 296 295 294 293 293 291 290 288 286 285 284 283
286 286 285 283 285 276 287 294 294 292 293 295 295 296 298 299 301 303 304 303 302 303 303 304 304 305 304 303 301 299 295 294 292 291 291 291 290 289 288 287 286 285 284 283
291 287 283 280 281 285 287 290 291 290 290 294 292 296 299 300 301 301 303 304 303 303 304 303 302 300 299 298 297 293 290 291 290 289 290 289 288 287 287 285 285 285 284 282
288 289 283 283 277 275 285 290 291 294 285 288 288 289 290 292 290 297 297 298 299 301 299 297 297 295 293 293 290 289 288 288 288 288 289 289 287 286 285 285 284 284 284 282
282 282 279 280 278 283 290 289 294 284 284 289 289 289 289 288 291 293 295 296 297 294 293 293 293 290 289 287 287 286 287 286 288 287 287 286 286 285 285 285 284 283 283 282
281 281 281 282 278 277 290 289 286 288 290 290 290 291 290 290 292 292 293 292 292 293 292 289 287 287 286 286 286 286 285 286 286 285 285 284 284 285 285 283 283 282 281 279
278 282 281 283 284 290 290 290 292 292 290 290 289 290 292 290 291 293 290 289 289 288 286 286 285 284 284 284 285 285 284 284 283 282 281 282 283 284 284 283 281 281 281 280
284 287 283 283 286 287 289 291 292 293 292 291 291 291 291 290 290 289 287 287 285 285 285 284 283 283 283 283 283 284 284 283 281 281 282 282 282 282 283 283 283 282 281 281
284 285 282 282 285 287 288 290 291 291 290 288 289 289 290 290 289 288 288 286 285 284 283 283 283 283 283 283 283 283 283 283 283 282 282 283 283 283 282 282 283 282 283 283
284 282 280 279 285 285 286 289 291 289 288 289 289 289 288 286 286 286 285 284 283 283 282 282 281 280 280 281 282 283 285 285 283 282 282 282 282 282 281 281 281 284 284 284
Wind_Speed
6 10 11 15 15 14 7 9 13 13 3 3 15 21 21 17 18 21 20 19 20 20 17 15 14 15 15 16 17 19 18 17 13 11 10 10 10 8 6 4 8 9 7 13
6 13 13 3 3 6 10 13 16 14 7 3 16 20 23 21 22 23 23 23 22 19 17 13 15 14 15 17 18 17 17 17 15 10 9 9 9 9 9 6 5 6 7 8
17 3 5 9 7 10 14 15 14 16 10 13 13 17 18 13 11 15 19 20 20 19 17 13 13 16 14 15 16 16 17 17 15 14 9 8 6 6 7 8 5 4 4 8
13 10 6 8 10 11 11 9 13 13 7 9 2 12 16 19 19 15 16 19 16 15 11 10 11 11 14 13 12 15 15 16 15 16 11 14 10 10 9 9 7 5 5 5
3 10 14 15 11 12 3 3 4 3 8 13 13 12 7 10 10 14 17 13 8 4 4 4 5 7 8 8 9 10 13 14 14 14 13 10 12 8 7 7 9 7 4 5
4 2 6 5 3 11 12 7 4 2 4 11 12 14 11 12 11 12 11 3 3 5 5 5 4 2 5 5 7 9 13 14 13 13 14 13 13 10 7 8 7 5 5 4
12 11 5 4 6 4 11 8 4 5 6 12 3 9 17 11 16 15 16 5 7 7 6 3 6 6 6 7 8 9 11 13 13 13 13 14 13 12 12 10 8 9 7 4
15 11 17 16 16 10 15 12 7 7 8 12 7 11 7 10 8 11 16 13 7 8 8 5 4 5 6 7 9 9 10 11 13 14 14 12 13 8 9 11 9 8 8 8
13 12 7 3 10 15 9 12 14 13 2 5 11 23 22 11 13 12 13 13 14 10 7 5 5 5 5 6 7 8 9 10 12 13 11 12 11 12 11 12 10 7 9 7
9 16 4 4 4 9 9 3 6 7 6 9 14 16 12 8 13 13 14 14 10 7 6 5 4 5 4 5 6 7 8 9 10 11 11 10 12 12 11 9 9 8 8 9
11 9 5 6 12 15 10 8 8 6 8 5 10 13 4 9 7 8 9 8 8 9 9 8 6 5 5 4 5 7 8 9 10 10 10 10 10 10 10 8 8 9 8 9
6 4 13 15 3 6 15 17 21 9 9 8 8 21 5 6 5 6 8 4 1 7 8 8 6 6 6 5 6 7 8 9 9 9 10 10 10 9 9 8 8 7 7 6
5 3 3 2 2 2 7 15 12 19 2 15 11 21 5 6 6 7 7 3 2 3 5 4 5 7 7 8 8 9 9 9 8 8 9 10 10 10 10 9 7 8 7 7
4 4 4 4 3 4 5 14 17 15 11 19 19 33 20 15 10 10 7 4 6 5 5 6 7 7 7 7 9 9 10 9 8 9 10 11 11 11 10 9 9 9 9 9
6 4 2 4 1 1 1 4 9 14 23 15 24 21 17 16 15 14 9 7 7 9 10 12 12 10 8 9 10 10 11 9 10 10 11 12 9 8 8 7 8 8 8 7
5 3 5 6 12 11 8 14 16 12 13 18 23 29 16 22 21 21 21 19 18 20 15 14 12 12 9 9 10 9 10 8 8 10 11 9 7 7 7 8 9 9 8 8
6 3 3 8 3 2 8 19 18 18 18 20 19 25 18 22 21 23 19 18 19 18 19 16 11 9 9 9 9 9 7 6 9 9 8 7 7 9 9 8 8 9 9 8
2 3 3 7 2 11 15 7 11 20 22 18 19 23 19 17 18 13 12 13 15 18 18 14 11 9 4 4 4 4 3 6 7 7 6 6 8 8 8 9 9 8 8 9
14 6 4 7 11 15 20 11 4 6 15 6 10 19 21 19 13 15 13 13 18 18 15 9 6 7 7 5 4 2 4 5 5 7 7 7 8 8 8 9 8 7 8 7
12 13 9 9 12 11 17 5 6 5 15 6 9 14 14 12 7 11 18 18 15 10 6 6 6 6 6 3 2 3 3 3 5 5 5 7 7 8 8 8 8 7 6 7
5 6 16 15 12 10 15 7 2 10 3 7 7 10 12 7 6 13 12 13 12 7 8 8 7 6 5 5 3 4 4 4 1 3 4 4 6 7 7 7 6 8 7 8
8 6 7 8 11 17 4 1 6 1 4 5 7 9 10 12 11 10 9 6 10 11 8 7 7 6 5 5 3 2 4 5 6 5 4 4 5 4 6 8 8 8 8 8
8 10 4 6 3 3 4 3 4 3 3 6 7 11 12 12 12 12 9 5 4 6 5 4 5 7 4 5 4 2 1 4 6 7 6 7 6 6 7 8 8 7 8 7
7 6 6 7 13 19 12 5 3 6 7 7 10 9 10 15 12 9 8 8 6 4 4 2 5 6 4 3 5 2 3 5 5 7 7 6 7 7 6 6 6 6 6 6
8 2 10 13 19 13 14 10 9 6 8 11 8 9 11 12 13 9 8 7 7 3 4 2 3 2 4 4 3 4 1 4 7 7 5 6 5 6 7 5 5 5 5 6
11 17 12 14 17 15 15 16 12 9 10 12 10 8 7 9 12 8 7 5 3 5 2 2 1 2 0 3 2 4 5 2 7 7 5 4 5 5 5 6 5 4 5 9
Wind_Direction
202 215 213 225 225 257 288 284 279 279 143 253 265 276 277 278 277 272 269 265 263 260 253 235 221 205 211 211 208 207 203 201 194 194 195 202 205 201 206 219 198 202 185 190
184 228 233 294 320 222 242 263 270 282 326 224 278 275 281 273 261 264 271 269 267 267 261 236 220 206 205 209 205 206 206 200 201 196 197 204 206 202 210 200 218 201 184 186
226 195 251 207 213 226 238 253 263 271 301 245 275 274 254 255 249 262 263 265 267 266 269 262 224 205 210 217 213 209 204 200 201 202 195 196 208 193 203 207 207 189 182 181
243 225 170 196 234 218 256 249 250 273 290 283 64 287 293 288 274 256 262 261 262 260 255 253 252 228 211 219 215 210 210 204 199 197 199 200 198 202 207 203 200 172 173 172
187 193 208 220 225 192 244 98 195 223 253 300 262 258 266 250 245 257 259 266 275 286 291 268 252 238 238 203 210 212 211 207 200 200 204 196 209 217 207 199 186 181 165 160
289 357 216 231 68 194 134 117 123 183 259 260 254 236 269 242 240 262 274 160 196 154 135 132 121 192 205 189 198 203 205 203 202 203 206 208 217 222 209 191 190 188 166 165
207 216 177 175 116 140 201 176 223 228 198 254 46 265 246 293 276 265 275 257 174 186 203 213 186 175 173 182 186 197 204 202 202 202 211 216 222 221 220 200 194 185 175 176
210 219 186 188 216 174 199 204 210 233 246 277 103 239 240 239 276 265 252 263 248 238 263 231 185 173 173 181 183 187 198 203 201 206 210 217 218 220 213 213 199 199 197 186
218 233 189 203 208 209 171 217 252 272 6 279 255 271 271 217 242 252 243 252 252 265 246 216 196 177 172 178 190 188 193 207 203 209 211 217 215 218 216 219 207 201 195 185
242 263 173 145 188 246 226 203 179 211 230 237 257 256 260 241 244 259 251 247 237 206 184 177 162 159 166 179 186 194 202 206 213 206 215 217 213 216 218 218 209 203 193 175
227 232 125 168 207 191 183 213 218 242 221 257 277 257 336 337 19 318 290 296 223 201 163 161 157 166 175 192 199 201 201 208 213 209 216 217 218 212 217 212 209 205 184 176
203 271 236 223 70 294 240 222 214 210 194 222 255 267 71 51 6 328 305 313 187 163 154 154 164 184 186 200 214 223 216 209 215 216 217 219 219 213 215 205 204 180 177 155
142 198 179 236 296 212 235 222 245 233 243 248 231 258 74 86 353 355 317 307 204 192 168 180 191 206 206 208 214 225 222 212 208 213 217 218 215 210 210 208 194 177 154 155
117 182 238 254 69 341 207 242 234 237 231 248 236 263 259 288 322 340 346 328 311 271 255 251 248 230 227 231 233 233 231 216 209 213 220 221 216 212 207 200 181 171 160 162
153 208 206 302 211 90 221 289 313 265 238 237 257 270 279 286 300 313 304 289 256 256 244 241 242 238 227 236 239 232 231 211 208 214 218 224 218 207 200 180 172 164 161 164
182 221 173 246 234 214 248 244 249 247 263 269 272 266 292 283 287 285 273 269 269 276 267 247 239 240 227 233 238 231 225 209 195 210 217 216 203 185 180 170 169 162 159 158
156 170 157 259 183 256 254 239 224 228 230 226 235 257 255 265 260 256 268 267 269 270 272 266 251 254 234 229 220 221 217 196 194 207 209 199 185 179 178 168 166 170 169 160
146 200 180 270 7 254 248 312 258 233 237 239 257 267 270 266 272 283 282 278 277 272 276 275 279 268 224 230 233 234 210 198 181 198 196 188 176 177 170 166 178 170 167 171
211 191 248 258 255 285 300 264 231 256 269 349 333 300 286 310 312 282 291 272 264 270 281 307 336 314 303 303 316 283 200 196 185 198 195 186 177 175 171 172 174 171 161 161
218 216 211 239 252 260 268 57 358 301 252 21 6 336 338 343 302 295 355 329 326 337 334 322 321 313 296 314 351 266 250 200 209 201 193 171 165 166 172 167 166 160 158 156
159 184 217 233 243 255 274 344 350 223 298 326 297 298 301 297 273 293 319 321 318 324 325 327 310 307 315 318 247 199 180 234 260 114 126 140 154 162 157 145 139 140 148 142
196 197 201 213 228 241 137 69 190 209 272 290 303 300 297 286 288 280 305 322 317 315 330 337 320 312 331 309 266 216 190 137 129 119 111 108 116 127 134 140 138 141 139 136
233 225 237 214 240 135 188 163 206 231 232 271 280 293 293 282 281 293 281 286 301 303 307 320 315 316 323 318 307 280 80 114 114 108 115 124 118 129 137 138 144 147 151 152
239 252 254 272 250 269 292 327 244 217 232 249 259 270 271 269 266 266 280 292 283 271 295 328 327 312 302 338 325 354 120 120 109 117 122 124 129 131 135 139 155 152 161 154
260 334 252 256 262 287 282 281 284 233 250 268 268 239 246 271 275 257 259 258 267 265 254 206 165 293 318 351 358 354 354 135 121 114 127 141 133 146 149 148 158 173 168 169
249 250 255 266 280 284 283 281 256 231 260 270 249 260 238 232 265 267 247 222 257 269 276 295 291 145 54 334 55 35 331 174 127 126 140 141 153 142 135 142 132 128 163 179